Hourly Data Report for June 22, 2012

All times are specified in Local Standard Time (LST). Add 1 hour to adjust for Daylight Saving Time where and when it is observed.

ABBOTSFORD A
BRITISH COLUMBIA

49°01'31.000" N
122°21'36.000" W
59.10 m
1100031
71108
YXX

Download Data

Hourly Data (June 2012)
Hourly Data Report for June 22, 2012
Temp Definition
°C
Dew Point Temp Definition
°C
Rel Hum Definition
%
Wind Dir Definition
10's deg

Wind Spd Definition
km/h
Visibility Definition
km
Stn Press Definition
kPa
Hmdx Definition


Wind Chill Definition


Weather Definition


TIME
00:00 Legend Double Dagger 13.5 10.7 83   0 10.0 99.99     LegendNANA
01:00 Legend Double Dagger 13.2 10.9 86 25 8 10.0 100.05     Mostly Cloudy
02:00 Legend Double Dagger 13.3 11.0 86 35 6 10.0 100.02     LegendNANA
03:00 Legend Double Dagger 12.8 11.1 89   0 10.0 100.01     LegendNANA
04:00 Legend Double Dagger 12.1 10.7 91   0 10.0 100.01     Mainly Clear
05:00 Legend Double Dagger 12.3 11.1 92 33 5 10.0 100.04     LegendNANA
06:00 Legend Double Dagger 14.3 9.4 72 21 7 10.0 100.09     LegendNANA
07:00 Legend Double Dagger 15.4 10.2 71 18 9 10.0 100.13     Mostly Cloudy
08:00 Legend Double Dagger 17.2 9.7 61 19 15 10.0 100.16     LegendNANA
09:00 Legend Double Dagger 16.0 9.9 67 24 17 10.0 100.19     LegendNANA
10:00 Legend Double Dagger 16.0 11.0 72 23 13 10.0 100.16     Cloudy
11:00 Legend Double Dagger 16.8 11.8 72 23 17 10.0 100.15     LegendNANA
12:00 Legend Double Dagger 15.6 11.2 75 24 21 10.0 100.18     LegendNANA
13:00 Legend Double Dagger 13.6 11.5 87 22 22 10.0 100.23     Rain
14:00 Legend Double Dagger 12.6 12.0 96 25 10 9.7 100.23     Moderate Rain
15:00 Legend Double Dagger 12.6 11.4 92 25 9 9.7 100.18     Rain
16:00 Legend Double Dagger 12.4 11.5 94 22 7 8.1 100.14     Rain,Fog
17:00 Legend Double Dagger 12.4 11.3 93 25 6 6.4 100.08     Rain,Fog
18:00 Legend Double Dagger 12.3 11.4 94 26 13 9.7 100.03     Rain,Fog
19:00 Legend Double Dagger 12.1 11.5 96 23 11 9.7 100.00     Rain Showers
20:00 Legend Double Dagger 12.2 11.6 96 22 7 8.1 99.94     Rain Showers,Fog
21:00 Legend Double Dagger 11.9 11.4 97 20 13 4.8 99.95     Rain Showers,Fog
22:00 Legend Double Dagger 11.7 11.4 98 21 5 4.0 99.94     Heavy Rain,Fog
23:00 Legend Double Dagger 11.8 11.5 98   0 6.4 99.88     Rain,Fog

Notes on Data Quality.

Legend

  • E = Estimated
  • M = Missing
  • NA = Not Available
  • ‡ = Partner data that is not subject to review by the National Climate Archives
Date modified: